Temperature
27 27 25 25 26 26 26 26 26 26 26 25 25 25 26 24 24 24 24 24 23 22 21 20 20 20 20 21 22 22 22 22 22 22 22 21 21 20 20 20 19 19 19 19
27 24 25 26 26 25 25 25 25 26 26 25 24 24 25 25 24 23 23 22 22 21 20 19 18 18 19 19 20 21 21 22 22 22 21 21 21 20 20 20 19 19 19 19
25 24 25 25 24 24 23 23 23 23 23 24 24 24 25 24 24 23 22 21 21 20 19 18 18 17 17 18 18 19 19 20 21 22 21 21 20 20 20 19 19 19 18 18
25 24 24 23 22 22 22 23 22 22 22 22 23 22 24 23 22 21 20 20 20 19 19 18 17 17 16 17 17 18 18 19 20 21 21 21 20 20 19 19 19 18 18 18
22 22 22 21 21 22 21 22 22 22 21 21 22 22 22 19 17 17 18 19 19 19 18 17 16 16 16 16 16 17 17 18 19 19 20 20 20 19 19 19 18 18 17 17
22 22 21 20 21 22 22 22 22 22 22 20 21 21 18 16 15 16 16 17 18 17 17 16 15 15 15 15 16 16 17 17 17 18 18 18 18 18 18 18 17 17 17 17
22 21 21 20 20 20 20 20 20 20 20 19 20 19 14 15 16 15 16 16 16 16 15 14 14 14 14 14 15 15 16 16 17 17 17 17 17 17 17 17 16 16 16 16
23 20 20 20 18 18 19 19 18 17 18 18 19 17 14 14 14 14 15 15 15 14 14 13 13 13 14 14 14 14 14 15 16 16 16 16 16 16 16 15 15 15 15 15
22 20 20 20 19 18 18 18 19 18 19 18 18 16 15 14 13 13 13 13 13 13 13 13 13 13 13 14 14 14 14 14 14 15 15 15 15 15 14 14 14 14 14 14
22 21 20 20 19 18 18 18 18 17 16 16 16 13 11 11 11 12 12 12 12 12 12 12 12 13 13 13 13 13 13 14 14 14 14 14 14 14 14 13 13 13 13 13
22 22 20 19 17 16 16 16 17 17 16 14 13 12 10 10 10 10 10 10 11 11 11 12 12 13 13 13 13 13 13 13 13 13 13 13 13 13 13 13 13 13 14 14
21 21 20 18 18 18 16 16 16 15 14 13 11 11 10 9 9 9 9 10 10 11 11 12 12 13 13 13 13 13 13 13 13 13 13 13 13 13 13 14 14 14 14 15
19 21 20 17 18 17 16 15 16 15 14 12 11 10 10 10 10 10 10 10 11 12 12 12 13 13 13 13 13 13 13 13 13 13 13 13 13 13 14 14 14 14 15 15
18 20 18 17 16 16 15 15 15 15 12 11 11 11 11 11 11 11 12 12 13 13 13 13 13 13 13 13 13 13 13 13 13 13 13 13 13 13 14 14 14 14 15 15
21 19 18 18 18 17 16 15 15 14 14 13 13 13 13 13 13 13 13 14 14 14 14 14 14 14 14 13 13 13 13 13 13 13 13 13 13 13 13 13 14 14 14 14
21 20 19 18 18 18 17 16 16 15 15 15 15 14 15 15 14 14 14 14 15 15 14 14 14 14 14 14 14 13 13 12 12 12 12 12 13 13 13 13 13 13 14 14
21 21 20 19 19 18 17 17 16 16 16 15 15 15 16 16 15 15 14 15 15 15 15 15 15 15 15 15 14 14 13 13 12 12 12 12 12 12 12 12 12 12 13 13
21 20 21 21 19 18 18 18 17 16 16 16 16 17 17 16 15 15 15 15 15 15 15 15 15 15 15 15 15 14 13 13 12 12 12 12 12 12 12 12 12 12 12 12
20 20 20 21 19 18 18 18 18 17 17 18 17 18 18 17 17 16 15 15 15 15 15 15 15 15 15 15 15 15 14 13 12 12 12 12 12 12 12 12 12 11 11 11
20 20 19 21 20 20 19 19 18 18 17 18 18 18 18 18 16 16 15 15 15 15 15 15 15 15 15 15 15 15 14 13 13 12 12 12 12 12 12 12 12 12 11 11
20 20 19 20 21 20 19 18 18 17 17 18 17 17 17 16 16 16 15 15 15 15 15 15 15 15 15 15 15 15 14 13 13 12 12 12 12 12 12 12 12 12 11 11
21 21 21 21 21 19 18 18 18 18 17 17 17 16 16 16 16 16 15 15 15 15 15 15 15 16 16 16 15 15 14 14 13 13 13 12 12 12 11 11 11 11 11 11
21 21 20 20 19 18 17 18 18 18 18 17 16 16 16 16 16 16 16 15 15 15 15 15 15 16 16 16 16 15 15 14 14 14 13 13 12 12 12 11 11 11 10 10
23 21 20 20 20 18 17 18 16 17 17 16 16 16 16 16 16 16 16 15 15 15 15 15 15 15 16 16 16 16 15 15 14 14 14 13 12 12 12 11 11 11 10 10
22 21 20 20 20 19 18 17 17 16 17 16 16 16 15 15 15 15 15 15 15 15 15 15 15 15 16 16 16 15 15 15 14 14 14 13 13 12 11 11 11 10 10 10
23 21 20 21 21 20 19 17 17 16 16 16 16 16 15 15 15 15 15 15 15 15 15 15 15 15 15 15 15 15 15 15 14 14 14 13 13 12 11 11 11 10 10 10
Wind_Speed
1 4 8 10 11 11 13 15 16 11 3 7 9 9 2 7 4 3 5 7 8 11 12 13 13 13 12 9 7 7 9 7 6 6 7 7 7 6 6 6 7 8 5 5
3 10 11 10 10 12 14 15 15 12 9 8 10 11 8 5 5 5 6 8 10 10 11 11 12 13 14 13 12 11 9 9 7 6 8 7 8 7 6 5 5 7 6 5
11 11 11 12 13 13 14 14 15 15 14 12 14 14 11 7 8 7 6 8 10 10 11 10 11 11 12 13 14 14 14 13 8 6 5 5 6 6 5 6 5 4 5 5
8 13 13 13 14 14 13 14 17 17 15 12 14 12 7 5 9 10 12 11 10 10 10 10 11 11 11 12 13 13 14 14 10 4 4 7 6 6 6 5 5 5 4 4
10 13 13 13 14 14 12 16 18 18 15 16 15 13 4 12 13 14 13 12 12 13 12 12 12 12 11 12 12 11 12 12 12 8 4 6 5 4 3 5 6 4 3 4
13 11 10 12 15 12 14 17 17 13 9 10 8 8 6 8 12 14 15 16 15 15 14 14 13 12 12 12 11 11 11 11 11 10 5 1 4 5 5 6 6 4 2 2
10 14 12 14 16 14 16 14 6 5 2 3 8 4 8 14 17 16 17 17 16 15 14 14 15 15 14 14 12 10 10 11 11 10 8 5 5 5 5 4 5 4 3 2
2 8 13 12 13 11 13 11 7 6 6 7 4 4 7 18 19 20 19 18 17 16 14 14 14 14 14 13 12 11 10 10 10 10 9 9 8 6 5 6 5 4 3 2
6 6 8 9 12 13 10 9 9 7 8 6 3 5 6 22 24 22 20 18 17 15 14 14 14 13 13 12 10 10 9 10 11 10 10 10 10 9 9 8 7 5 4 3
7 4 5 7 10 14 10 9 6 7 7 6 7 7 11 24 25 22 20 17 16 15 15 15 13 12 11 9 8 9 9 9 10 10 9 9 10 9 8 7 7 5 3 2
10 2 6 7 10 14 13 12 9 6 5 5 6 5 11 19 20 18 16 15 15 15 15 13 12 12 10 9 9 9 9 9 9 9 9 9 8 7 6 5 3 1 1 1
6 5 5 8 7 9 12 12 10 5 6 5 4 5 12 15 14 14 14 14 13 13 13 11 11 11 11 11 10 9 7 7 6 6 6 6 5 5 5 4 4 4 3 3
8 7 1 5 3 11 11 14 11 5 5 5 4 6 9 9 11 12 12 11 10 10 9 9 9 9 10 9 9 9 8 6 4 4 4 4 3 3 3 4 5 5 5 5
5 8 11 8 6 7 9 12 13 9 5 5 4 5 7 9 9 10 10 9 7 7 8 9 8 9 9 9 9 10 9 7 5 4 3 2 1 1 2 3 4 5 5 5
5 8 11 10 7 8 10 11 12 12 7 5 4 7 9 7 6 7 9 9 10 11 12 11 10 9 9 8 9 9 8 8 8 7 7 6 4 4 4 4 5 6 8 9
3 5 7 7 5 5 9 8 8 7 7 6 7 8 7 5 6 8 11 12 13 13 13 11 10 10 8 8 8 8 8 8 8 9 9 9 9 8 8 7 7 8 9 10
1 2 3 5 6 3 3 5 4 5 5 6 7 6 6 7 9 9 10 11 13 12 11 10 9 9 8 7 7 7 7 7 8 8 8 8 8 8 8 9 8 8 8 9
4 3 3 3 6 1 6 8 5 2 2 2 2 3 3 3 5 6 8 8 10 11 10 10 8 9 10 8 7 7 8 8 8 8 8 7 8 8 8 8 8 8 7 7
4 3 4 2 2 4 7 7 6 2 3 3 3 5 5 3 6 10 10 9 8 9 8 8 7 8 8 9 8 8 9 8 8 7 8 8 7 7 8 8 7 7 6 6
2 2 5 4 3 1 6 10 6 2 3 5 3 6 9 9 5 8 8 8 7 7 7 8 7 7 7 8 6 7 8 8 7 7 7 7 7 7 8 8 8 7 6 4
4 5 5 6 4 5 10 12 7 2 5 7 5 6 8 9 7 5 6 7 5 5 5 7 7 6 6 7 7 7 7 6 5 4 5 5 6 6 7 7 7 6 6 5
3 2 2 3 3 4 12 9 4 6 8 7 6 6 5 5 5 5 5 5 5 5 5 6 6 6 5 4 6 6 5 3 2 2 2 3 4 6 6 5 5 5 5 5
2 2 3 3 4 7 10 6 7 6 7 7 6 5 3 4 5 5 5 5 5 5 5 5 7 7 6 4 4 4 3 3 1 2 2 3 4 4 5 5 5 5 6 5
3 4 1 3 6 10 10 7 8 5 6 8 5 4 2 4 5 5 5 5 5 5 5 5 6 7 7 6 4 3 4 4 3 2 3 4 5 5 5 5 5 6 6 6
1 5 3 4 4 9 10 9 10 9 7 8 6 4 3 2 4 5 5 5 5 5 5 6 6 6 7 7 6 6 5 5 4 2 5 5 5 5 6 6 5 6 6 5
5 6 5 2 6 6 10 14 13 12 10 9 7 6 4 2 3 4 4 4 4 5 5 6 7 7 7 8 7 7 6 5 5 3 5 4 4 4 4 5 5 7 5 5
Wind_Direction
291 2 28 9 359 339 318 304 300 302 259 248 275 292 209 124 107 55 15 15 18 21 14 16 1 352 345 335 318 291 285 256 206 185 183 179 188 188 175 176 174 178 184 146
100 45 15 351 345 340 326 316 312 313 333 315 296 291 286 150 130 88 33 15 23 22 12 16 7 0 352 348 342 324 301 279 246 211 197 190 180 185 177 167 158 160 165 154
60 38 11 357 355 352 328 329 333 322 315 298 287 278 261 185 140 107 64 32 24 19 13 12 9 4 352 350 347 339 334 319 277 231 205 196 181 173 170 168 164 154 152 154
54 33 17 6 0 346 317 334 324 309 300 287 283 288 288 136 100 54 36 25 22 17 15 23 17 6 358 353 346 343 341 335 321 268 215 201 191 190 185 170 159 156 152 146
62 37 25 6 344 326 319 314 297 284 279 280 280 276 318 46 37 23 10 4 15 16 18 27 22 9 3 0 356 351 349 349 346 334 262 217 199 184 164 146 151 163 155 132
79 60 44 4 335 332 327 313 293 267 255 264 302 299 47 28 13 6 356 357 9 13 16 23 20 12 5 6 4 2 2 1 357 355 1 149 164 142 138 149 153 145 128 102
107 72 46 17 1 354 345 338 337 348 315 339 349 12 55 22 12 0 349 355 2 9 16 20 17 11 7 6 3 7 13 13 13 17 26 51 93 113 126 129 138 136 121 101
30 52 35 19 17 343 340 353 1 336 338 325 340 79 71 17 1 355 351 354 357 4 14 19 15 7 1 2 5 9 21 24 27 35 44 53 63 71 76 82 90 91 86 77
16 73 53 30 25 12 356 2 333 313 312 312 55 78 26 1 353 351 350 352 354 4 15 12 5 360 355 356 7 17 26 33 38 47 55 61 64 68 69 67 65 66 62 58
336 103 74 41 25 25 11 351 340 348 354 343 4 40 357 344 343 342 346 349 354 8 11 7 4 359 357 5 23 33 40 41 43 47 55 66 66 66 66 64 56 49 39 25
332 357 107 57 31 21 14 10 359 357 31 4 344 20 360 337 337 340 346 354 2 10 6 4 6 11 16 30 44 44 46 46 47 50 54 59 61 60 59 56 41 12 297 259
5 316 82 83 82 56 34 13 5 15 28 21 354 6 348 338 345 352 359 4 7 9 6 8 15 20 25 35 44 45 47 51 47 54 55 52 48 47 38 16 344 323 307 278
341 334 41 134 127 37 27 19 16 47 63 34 16 341 327 343 358 358 358 358 357 3 11 15 20 25 30 34 38 38 40 48 44 48 56 56 37 22 357 329 312 304 299 291
302 40 49 68 57 25 31 33 37 53 60 56 32 345 345 2 359 351 351 353 1 11 17 23 26 31 35 41 41 38 34 36 49 48 45 43 12 309 305 307 308 310 308 306
317 81 85 91 86 66 60 56 57 61 61 62 43 24 10 19 5 356 357 9 22 28 27 28 28 30 35 42 49 45 37 35 41 45 43 36 32 30 24 12 0 1 6 12
353 117 132 126 121 96 86 75 69 63 50 49 51 38 15 42 32 17 15 19 27 28 27 24 26 24 33 40 47 50 47 41 40 41 41 37 37 35 36 36 31 34 32 27
179 240 239 148 149 218 123 108 86 67 51 34 34 14 6 38 40 28 18 19 24 24 24 16 26 17 17 49 56 56 56 51 44 42 41 36 35 34 30 31 34 45 47 43
327 309 284 175 178 25 104 124 129 117 109 79 25 4 13 74 90 56 32 24 21 19 19 9 26 30 13 23 56 67 56 52 44 35 33 42 36 31 27 31 37 39 54 60
324 301 289 318 84 126 153 169 183 213 114 120 46 24 9 142 119 59 36 31 31 19 10 359 21 30 12 4 20 57 58 50 43 38 31 29 34 29 24 24 31 31 35 58
207 264 284 291 274 79 136 144 157 228 177 138 70 36 21 31 60 39 28 30 32 25 6 354 10 25 6 351 4 54 59 53 38 27 30 25 23 26 25 24 21 19 18 35
201 202 239 280 293 99 121 131 156 240 119 123 90 51 43 45 42 30 27 30 24 33 13 353 357 3 357 1 16 46 53 59 63 41 35 26 12 24 43 31 23 17 7 359
311 292 253 267 272 134 143 155 184 104 116 122 101 72 57 55 48 38 40 32 14 18 23 357 345 334 325 11 19 27 47 46 89 109 86 71 51 32 42 44 35 21 2 4
209 336 346 351 58 115 157 153 113 134 141 123 107 100 86 65 53 39 49 41 13 10 23 356 330 322 330 4 15 8 27 357 359 94 121 122 113 85 54 39 40 33 22 26
120 105 230 266 173 163 180 157 142 166 128 118 124 131 91 58 48 33 48 38 13 7 6 346 339 346 339 331 336 44 37 353 357 62 69 91 91 93 84 55 46 44 28 22
34 152 211 240 171 155 179 184 170 172 158 145 152 142 101 55 39 22 38 27 0 353 354 358 353 338 333 349 10 45 29 352 339 37 71 78 85 81 95 78 50 56 64 46
206 185 202 242 161 176 186 184 181 175 176 168 168 158 147 107 40 15 22 4 350 354 3 1 347 340 349 1 17 26 2 347 349 46 76 60 75 78 104 123 107 59 71 61
Height
1505 1507 1513 1512 1511 1512 1511 1510 1509 1505 1503 1506 1506 1504 1502 1505 1508 1511 1513 1514 1515 1515 1515 1513 1512 1511 1509 1509 1509 1509 1510 1512 1512 1513 1515 1517 1519 1521 1523 1525 1527 1529 1532 1534
1507 1518 1515 1513 1512 1513 1513 1514 1511 1504 1502 1505 1506 1504 1502 1504 1508 1512 1514 1515 1516 1516 1516 1515 1514 1511 1508 1507 1506 1506 1506 1507 1508 1509 1509 1511 1514 1517 1519 1521 1523 1525 1527 1530
1515 1521 1518 1518 1518 1521 1521 1521 1519 1517 1510 1506 1508 1508 1502 1502 1507 1512 1515 1517 1517 1517 1517 1516 1514 1511 1509 1506 1504 1502 1501 1501 1502 1504 1505 1506 1508 1511 1513 1516 1518 1520 1522 1525
1518 1523 1524 1525 1527 1528 1528 1520 1521 1519 1520 1517 1512 1519 1504 1502 1509 1516 1519 1519 1519 1518 1517 1516 1514 1511 1509 1506 1503 1500 1498 1497 1497 1498 1500 1501 1502 1504 1505 1509 1513 1516 1518 1520
1530 1530 1532 1534 1533 1529 1526 1521 1518 1516 1518 1519 1513 1517 1515 1516 1525 1527 1526 1523 1520 1519 1517 1516 1514 1511 1508 1505 1502 1499 1496 1494 1493 1494 1495 1497 1498 1500 1502 1504 1507 1510 1514 1515
1530 1533 1536 1539 1533 1527 1523 1518 1509 1505 1512 1524 1519 1521 1533 1537 1537 1533 1531 1526 1523 1521 1519 1517 1514 1511 1507 1504 1500 1498 1495 1493 1492 1491 1492 1493 1495 1497 1499 1501 1502 1504 1507 1510
1535 1537 1539 1541 1537 1532 1528 1526 1525 1523 1525 1529 1523 1527 1549 1544 1540 1538 1534 1528 1526 1523 1520 1518 1514 1510 1507 1503 1500 1497 1494 1492 1491 1490 1490 1491 1493 1494 1497 1498 1498 1501 1504 1507
1530 1543 1544 1544 1546 1545 1535 1532 1542 1547 1541 1534 1525 1538 1551 1548 1545 1541 1537 1532 1529 1525 1522 1519 1516 1512 1508 1505 1501 1498 1495 1493 1491 1491 1490 1490 1491 1493 1495 1496 1498 1500 1503 1505
1534 1548 1545 1547 1547 1547 1543 1542 1537 1538 1533 1532 1532 1541 1545 1548 1546 1543 1539 1535 1531 1527 1523 1520 1516 1513 1509 1506 1503 1500 1497 1495 1493 1492 1492 1491 1492 1493 1495 1496 1498 1500 1501 1503
1535 1544 1547 1548 1549 1549 1547 1545 1541 1544 1550 1551 1544 1556 1567 1558 1552 1546 1541 1537 1532 1528 1525 1521 1518 1514 1510 1507 1505 1502 1499 1498 1496 1495 1494 1494 1494 1495 1496 1497 1498 1500 1501 1503
1539 1538 1547 1550 1556 1559 1555 1552 1549 1546 1552 1565 1568 1573 1573 1567 1559 1551 1545 1539 1534 1530 1527 1523 1520 1516 1513 1510 1507 1505 1503 1501 1499 1498 1498 1498 1498 1499 1500 1501 1502 1503 1504 1505
1541 1540 1545 1556 1557 1557 1560 1559 1556 1562 1566 1570 1577 1583 1575 1569 1562 1554 1547 1541 1536 1533 1529 1526 1523 1519 1516 1514 1512 1509 1507 1505 1504 1503 1503 1503 1503 1504 1504 1505 1506 1506 1507 1508
1550 1544 1550 1561 1561 1561 1563 1562 1559 1560 1569 1578 1583 1587 1575 1569 1562 1555 1549 1544 1539 1536 1534 1530 1527 1524 1521 1519 1516 1514 1512 1510 1509 1508 1507 1507 1507 1508 1508 1508 1508 1508 1509 1509
1554 1552 1557 1568 1575 1569 1569 1568 1565 1566 1576 1582 1585 1582 1573 1567 1562 1557 1552 1548 1544 1541 1538 1535 1532 1529 1527 1524 1521 1519 1516 1514 1512 1511 1511 1511 1511 1511 1511 1510 1510 1510 1510 1510
1550 1556 1561 1565 1565 1566 1569 1570 1570 1572 1575 1579 1579 1575 1571 1567 1563 1559 1555 1551 1547 1545 1542 1539 1537 1534 1532 1529 1527 1524 1522 1519 1517 1515 1514 1514 1513 1513 1513 1512 1512 1512 1511 1511
1551 1556 1560 1564 1564 1564 1568 1570 1571 1572 1572 1572 1571 1572 1568 1566 1564 1560 1557 1554 1551 1549 1546 1544 1541 1538 1536 1534 1532 1529 1526 1524 1522 1519 1518 1517 1516 1515 1515 1514 1513 1513 1512 1511
1551 1552 1555 1559 1561 1565 1568 1569 1570 1572 1572 1572 1573 1572 1567 1566 1565 1563 1560 1558 1555 1553 1550 1547 1545 1543 1540 1538 1536 1533 1531 1529 1526 1524 1522 1521 1519 1518 1517 1516 1515 1514 1513 1511
1552 1553 1552 1552 1560 1567 1569 1564 1568 1570 1570 1571 1570 1567 1566 1566 1566 1564 1563 1561 1559 1557 1554 1551 1549 1547 1544 1542 1540 1538 1535 1533 1531 1529 1527 1525 1523 1522 1521 1519 1518 1517 1515 1514
1555 1555 1553 1549 1560 1564 1565 1564 1565 1567 1567 1568 1568 1566 1564 1563 1564 1565 1564 1563 1562 1560 1558 1555 1553 1551 1548 1545 1543 1541 1539 1536 1534 1532 1530 1528 1527 1525 1523 1522 1520 1519 1517 1516
1556 1556 1557 1552 1556 1559 1557 1558 1563 1567 1567 1567 1567 1567 1565 1564 1566 1568 1566 1565 1563 1562 1560 1558 1556 1554 1551 1548 1546 1544 1541 1539 1537 1535 1533 1531 1529 1527 1526 1524 1522 1520 1519 1519
1553 1554 1557 1554 1552 1554 1555 1559 1564 1570 1567 1566 1567 1568 1568 1568 1569 1569 1567 1566 1565 1563 1562 1560 1558 1556 1554 1551 1549 1547 1544 1542 1539 1537 1535 1533 1532 1530 1528 1525 1523 1521 1520 1520
1548 1549 1549 1550 1551 1560 1556 1559 1562 1563 1564 1566 1568 1569 1569 1569 1569 1568 1567 1566 1565 1564 1562 1561 1559 1557 1554 1553 1550 1548 1546 1544 1541 1539 1537 1535 1534 1532 1530 1528 1525 1524 1523 1523
1546 1547 1549 1549 1555 1553 1555 1557 1559 1561 1563 1566 1567 1569 1569 1569 1569 1568 1567 1566 1565 1564 1562 1560 1559 1556 1555 1553 1551 1549 1547 1545 1543 1541 1539 1537 1535 1533 1532 1530 1528 1526 1525 1525
1540 1545 1548 1548 1548 1552 1555 1557 1559 1561 1563 1565 1567 1568 1569 1569 1568 1568 1567 1565 1564 1563 1562 1560 1558 1556 1554 1553 1551 1549 1547 1545 1544 1542 1540 1539 1537 1535 1533 1532 1530 1528 1527 1526
1541 1544 1546 1547 1546 1549 1552 1555 1558 1560 1563 1565 1567 1568 1568 1569 1568 1568 1567 1565 1564 1563 1561 1560 1558 1556 1555 1553 1551 1549 1546 1545 1544 1543 1541 1540 1538 1536 1534 1533 1531 1530 1529 1528
1536 1540 1543 1542 1541 1545 1547 1551 1554 1558 1561 1563 1565 1566 1567 1568 1568 1567 1566 1565 1564 1563 1561 1559 1558 1556 1555 1553 1551 1548 1546 1544 1543 1543 1541 1540 1539 1537 1536 1534 1533 1532 1531 1530